GW2175 Weather Reports


time (UTC)temp
C
wind
direction
speed
KPH
gust
KPH
rain 1hr
cm
rain 24hr
cm
rain mn
cm
humidity
%
barometer
mb
20260510190525 25 276 8.0 9.7 0.00 0.03 0.03 71 1018.3
20260510190022 25 272 8.0 9.7 0.00 0.03 0.03 71 1018.1
20260510185518 25 273 4.8 8.0 0.00 0.03 0.03 72 1018.3
20260510185016 25 266 8.0 9.7 0.00 0.03 0.03 72 1018.4
20260510184513 25 263 6.4 9.7 0.00 0.03 0.03 74 1018.6
20260510184009 25 190 4.8 8.0 0.00 0.03 0.03 75 1018.7
20260510183504 25 265 6.4 9.7 0.00 0.03 0.03 76 1018.8
20260510182959 25 194 4.8 4.8 0.00 0.03 0.03 79 1018.9
20260510182456 25 181 3.2 3.2 0.00 0.03 0.03 78 1018.9
20260510181951 25 153 1.6 3.2 0.00 0.03 0.03 79 1018.8
20260510181450 25 288 4.8 4.8 0.00 0.03 0.03 78 1018.8
20260510180945 25 187 4.8 4.8 0.00 0.03 0.03 79 1018.7
20260510180443 25 277 6.4 9.7 0.00 0.03 0.03 80 1018.9
20260510175939 25 208 4.8 4.8 0.00 0.03 0.03 79 1018.9
20260510175435 25 279 8.0 11.3 0.00 0.03 0.03 79 1019.0
20260510174931 25 250 1.6 3.2 0.00 0.03 0.03 78 1018.9
20260510174430 25 312 4.8 4.8 0.00 0.03 0.03 78 1019.3
20260510173926 24 237 3.2 3.2 0.00 0.03 0.03 79 1019.3
20260510173421 24 262 6.4 8.0 0.00 0.03 0.03 78 1019.2
20260510172918 24 279 6.4 9.7 0.00 0.03 0.03 78 1019.2
20260510172414 24 270 8.0 9.7 0.00 0.03 0.03 78 1019.4
20260510171910 25 104 1.6 1.6 0.00 0.03 0.03 76 1019.2
20260510171408 25 201 4.8 8.0 0.00 0.03 0.03 78 1019.3
20260510170904 25 62 1.6 1.6 0.00 0.03 0.03 77 1019.3
20260510170401 25 129 1.6 1.6 0.00 0.03 0.03 78 1019.6
20260510165856 24 118 1.6 1.6 0.00 0.03 0.03 80 1019.5
20260510165353 23 202 4.8 4.8 0.00 0.03 0.03 81 1019.7
20260510164850 23 244 6.4 9.7 0.00 0.03 0.03 81 1019.6
20260510164347 23 274 8.0 9.7 0.00 0.03 0.03 82 1019.7
20260510163847 24 80 1.6 1.6 0.00 0.03 0.03 81 1019.8
20260510163343 23 257 4.8 4.8 0.00 0.03 0.03 82 1019.7
20260510162837 23 93 1.6 3.2 0.00 0.03 0.03 82 1019.5
20260510162335 23 100 1.6 1.6 0.00 0.03 0.03 83 1019.7
20260510161831 23 31 3.2 4.8 0.00 0.03 0.03 83 1019.6
20260510161327 23 291 6.4 8.0 0.00 0.03 0.03 83 1019.4
20260510160824 23 111 0.0 1.6 0.00 0.03 0.03 84 1019.5
20260510160321 23 174 4.8 4.8 0.00 0.03 0.03 84 1019.6
20260510155815 23 21 6.4 8.0 0.00 0.03 0.03 85 1019.5
20260510155312 23 127 0.0 1.6 0.00 0.03 0.03 86 1019.5
20260510154807 22 119 1.6 1.6 0.00 0.03 0.03 87 1019.7
20260510154303 22 154 3.2 3.2 0.00 0.03 0.03 87 1019.4
20260510153758 22 91 1.6 3.2 0.00 0.03 0.03 87 1019.6
20260510153254 22 86 0.0 1.6 0.00 0.03 0.03 90 1019.4
20260510152751 22 91 3.2 3.2 0.00 0.03 0.03 91 1019.5
20260510152248 21 110 0.0 0.0 0.00 0.03 0.03 93 1019.5
20260510151744 21 100 1.6 3.2 0.00 0.03 0.03 94 1019.3
20260510151243 21 83 3.2 3.2 0.00 0.03 0.03 94 1019.3
20260510150738 21 112 0.0 0.0 0.00 0.03 0.03 94 1019.5
20260510150234 21 111 0.0 0.0 0.00 0.03 0.03 95 1019.5
20260510145730 20 111 0.0 1.6 0.00 0.03 0.03 95 1019.6
20260510145227 20 114 0.0 1.6 0.00 0.03 0.03 95 1019.6
20260510144723 21 120 1.6 1.6 0.00 0.03 0.03 95 1019.6
20260510144221 20 103 0.0 1.6 0.00 0.03 0.03 96 1019.8
20260510143714 21 106 0.0 0.0 0.00 0.03 0.03 96 1019.7
20260510143211 20 110 0.0 0.0 0.00 0.03 0.03 96 1019.5
20260510142708 20 109 0.0 0.0 0.00 0.03 0.03 96 1019.7
20260510142204 20 114 0.0 0.0 0.00 0.03 0.03 96 1019.6
20260510141701 20 114 0.0 0.0 0.00 0.03 0.03 96 1019.8
20260510141200 20 110 0.0 0.0 0.00 0.03 0.03 96 1019.8
20260510140656 20 114 0.0 0.0 0.00 0.03 0.03 96 1019.9
20260510140155 20 121 0.0 0.0 0.00 0.03 0.03 96 1019.6
20260510135650 20 109 0.0 0.0 0.00 0.03 0.03 96 1019.3
20260510135147 20 113 1.6 1.6 0.00 0.03 0.03 96 1019.5
20260510134644 19 113 0.0 0.0 0.00 0.03 0.03 96 1019.4
20260510134141 19 74 1.6 3.2 0.00 0.03 0.03 96 1019.4
20260510133637 19 104 0.0 0.0 0.00 0.03 0.03 96 1019.3
20260510133132 19 105 1.6 1.6 0.00 0.03 0.03 96 1019.3
20260510132629 19 112 0.0 0.0 0.00 0.03 0.03 96 1019.1
20260510132127 19 110 0.0 0.0 0.00 0.03 0.03 96 1019.3
20260510131624 19 114 0.0 0.0 0.00 0.03 0.03 96 1019.4
20260510131121 18 109 0.0 0.0 0.00 0.03 0.03 96 1019.1
20260510130618 19 113 0.0 0.0 0.00 0.03 0.03 96 1019.2
20260510130115 18 113 0.0 0.0 0.00 0.03 0.03 96 1018.9
20260510125612 18 103 0.0 0.0 0.00 0.03 0.03 96 1018.9
20260510125108 18 108 0.0 0.0 0.00 0.03 0.03 96 1019.1
20260510124604 18 111 0.0 0.0 0.00 0.03 0.03 96 1019.0
20260510124102 18 116 0.0 0.0 0.00 0.03 0.03 96 1018.7
20260510123556 18 113 0.0 0.0 0.00 0.03 0.03 96 1018.6
20260510123053 18 99 0.0 0.0 0.00 0.03 0.03 96 1018.7
20260510122549 18 109 0.0 0.0 0.00 0.03 0.03 96 1018.6
20260510122045 18 111 0.0 0.0 0.00 0.03 0.03 96 1018.5
20260510121543 18 111 0.0 0.0 0.00 0.03 0.03 96 1018.3
20260510121040 18 121 1.6 1.6 0.00 0.03 0.03 96 1018.3
20260510120537 18 112 0.0 0.0 0.00 0.03 0.03 96 1018.2
20260510120032 17 108 0.0 0.0 0.00 0.03 0.03 96 1018.0
20260510115529 17 109 0.0 0.0 0.00 0.03 0.03 96 1018.1
20260510115026 17 108 0.0 0.0 0.00 0.03 0.03 96 1018.0
20260510114522 17 120 0.0 0.0 0.00 0.03 0.03 96 1018.0
20260510114019 17 116 0.0 0.0 0.00 0.03 0.03 96 1017.8
20260510113514 17 114 0.0 0.0 0.00 0.03 0.03 96 1017.8
20260510113012 17 113 0.0 0.0 0.00 0.03 0.03 96 1018.0
20260510112508 17 114 0.0 0.0 0.00 0.03 0.03 96 1018.0
20260510112005 17 114 0.0 0.0 0.00 0.03 0.03 96 1017.8
20260510111501 17 108 0.0 0.0 0.00 0.03 0.03 96 1017.6
20260510110957 17 114 0.0 0.0 0.00 0.03 0.03 96 1017.2
20260510110454 17 114 0.0 0.0 0.00 0.03 0.03 96 1017.5
20260510105950 17 116 0.0 0.0 0.00 0.03 0.03 96 1017.6
20260510105445 17 106 0.0 0.0 0.00 0.03 0.03 96 1017.4
20260510104940 17 106 0.0 0.0 0.00 0.03 0.03 96 1017.1
20260510104437 17 106 0.0 0.0 0.00 0.03 0.03 96 1017.3
20260510103933 17 106 0.0 0.0 0.00 0.03 0.03 96 1017.3
20260510103426 17 100 0.0 0.0 0.00 0.03 0.03 96 1016.9
20260510102920 17 108 0.0 0.0 0.00 0.03 0.03 96 1017.1
20260510102416 17 111 0.0 0.0 0.00 0.03 0.03 96 1016.8
20260510101914 17 113 0.0 0.0 0.00 0.03 0.03 96 1016.5
20260510101412 17 113 0.0 0.0 0.00 0.03 0.03 96 1016.6
20260510100909 17 114 0.0 0.0 0.00 0.03 0.03 96 1016.4
20260510100406 17 118 0.0 0.0 0.00 0.03 0.03 96 1016.5
20260510095902 17 115 0.0 0.0 0.00 0.03 0.03 96 1016.7
20260510095357 17 106 0.0 0.0 0.00 0.03 0.03 96 1016.5
20260510094856 17 106 0.0 0.0 0.00 0.03 0.03 96 1016.7
20260510094352 17 112 0.0 0.0 0.00 0.03 0.03 96 1016.6
20260510093848 17 106 0.0 0.0 0.00 0.03 0.03 96 1016.4
20260510093344 17 111 0.0 0.0 0.00 0.03 0.03 96 1016.3
20260510092840 17 105 0.0 0.0 0.00 0.03 0.03 96 1016.1
20260510092337 17 106 0.0 0.0 0.00 0.03 0.03 96 1016.1
20260510091832 17 106 0.0 0.0 0.00 0.03 0.03 96 1016.2
20260510091324 18 109 0.0 0.0 0.00 0.03 0.03 96 1016.1
20260510090820 18 113 0.0 0.0 0.00 0.03 0.03 96 1015.9
20260510090317 18 109 0.0 0.0 0.00 0.03 0.03 96 1016.0
20260510085812 18 113 0.0 0.0 0.00 0.03 0.03 96 1016.0
20260510085307 18 113 0.0 0.0 0.00 0.03 0.03 96 1015.9
20260510084803 18 113 0.0 0.0 0.00 0.03 0.03 96 1015.6
20260510084300 18 109 0.0 0.0 0.00 0.03 0.03 96 1016.1
20260510083757 18 109 0.0 0.0 0.00 0.03 0.03 96 1015.8
20260510083254 18 109 0.0 0.0 0.00 0.03 0.03 96 1015.8
20260510082749 18 111 0.0 0.0 0.00 0.03 0.03 96 1016.1
20260510082246 18 103 0.0 0.0 0.00 0.03 0.03 96 1015.7
20260510081745 18 109 0.0 0.0 0.00 0.03 0.03 96 1015.7
20260510081241 18 111 0.0 0.0 0.00 0.03 0.03 96 1015.6
20260510080737 18 112 0.0 0.0 0.00 0.03 0.03 96 1015.5
20260510080233 18 109 0.0 0.0 0.00 0.03 0.03 96 1015.6
20260510075730 18 108 0.0 0.0 0.00 0.03 0.03 96 1015.4
20260510075227 18 109 0.0 0.0 0.00 0.03 0.03 96 1015.5
20260510074724 18 106 0.0 0.0 0.00 0.03 0.03 96 1015.6
20260510074221 18 108 0.0 0.0 0.18 0.03 0.03 96 1015.6
20260510073717 18 102 0.0 0.0 0.18 0.03 0.03 96 1015.4
20260510073213 18 106 0.0 0.0 0.00 0.00 0.00 96 1015.6
20260510072709 18 104 0.0 0.0 0.00 0.00 0.00 96 1015.5
20260510072206 18 96 0.0 1.6 0.00 0.00 0.00 96 1015.5
20260510071702 18 107 0.0 0.0 0.00 0.00 0.00 96 1015.5
20260510071159 18 78 1.6 3.2 0.00 0.00 0.00 96 1015.4
20260510070656 18 109 0.0 0.0 0.00 0.00 0.00 96 1015.0
20260510070154 18 107 0.0 0.0 0.00 0.00 0.00 96 1014.9
20260510065649 18 111 0.0 0.0 0.00 0.00 0.00 96 1015.2
20260510065145 18 101 1.6 1.6 0.00 0.00 0.00 96 1015.0
20260510064642 18 111 0.0 0.0 0.00 0.00 0.00 96 1015.1
20260510064139 18 111 0.0 0.0 0.00 0.00 0.00 96 1015.2
20260510063636 18 111 0.0 0.0 0.00 0.00 0.00 96 1015.1
20260510063133 18 111 0.0 0.0 0.00 0.00 0.00 96 1015.1
20260510062629 18 111 0.0 0.0 0.00 0.00 0.00 96 1014.9
20260510062125 18 108 0.0 0.0 0.00 0.00 0.00 96 1015.0
20260510061620 18 86 1.6 1.6 0.00 0.00 0.00 96 1015.3
20260510061118 18 111 0.0 0.0 0.00 0.00 0.00 96 1015.1
20260510060614 18 111 0.0 0.0 0.00 0.00 0.00 96 1015.6
20260510060111 18 122 0.0 0.0 0.00 0.00 0.00 96 1015.4
20260510055607 18 115 1.6 1.6 0.00 0.00 0.00 96 1015.1
20260510055105 18 117 0.0 0.0 0.00 0.00 0.00 96 1015.2
20260510054600 18 114 0.0 0.0 0.00 0.00 0.00 96 1015.2
20260510054056 18 122 1.6 1.6 0.00 0.00 0.00 96 1015.4
20260510053555 19 120 1.6 1.6 0.00 0.00 0.00 96 1015.6
20260510053052 19 125 0.0 0.0 0.00 0.00 0.00 96 1015.8
20260510052548 19 111 0.0 0.0 0.00 0.00 0.00 96 1016.0
20260510052044 19 118 0.0 0.0 0.00 0.00 0.00 96 1016.1
20260510051540 19 127 0.0 0.0 0.00 0.00 0.00 96 1015.9
20260510051037 19 134 0.0 1.6 0.00 0.00 0.00 96 1016.1
20260510050534 19 159 3.2 3.2 0.00 0.00 0.00 96 1016.3
20260510050031 19 106 0.0 0.0 0.00 2.41 2.41 96 1016.3
20260510045528 19 129 1.6 1.6 0.00 2.41 2.41 96 1016.1
20260510045024 19 108 0.0 0.0 0.00 2.41 2.41 96 1016.1
20260510044521 19 109 0.0 0.0 0.00 2.41 2.41 96 1016.2
20260510044019 19 115 0.0 0.0 0.00 2.41 2.41 96 1016.2
20260510043514 19 107 0.0 0.0 0.00 2.41 2.41 96 1016.5
20260510043009 19 107 0.0 0.0 0.00 2.41 2.41 96 1016.1
20260510042503 19 121 1.6 1.6 0.00 2.41 2.41 96 1016.7
20260510041958 19 103 0.0 0.0 0.00 2.41 2.41 96 1016.5
20260510041456 19 106 0.0 0.0 0.00 2.41 2.41 96 1016.3
20260510040954 19 109 0.0 0.0 0.00 2.41 2.41 96 1016.3
20260510040450 19 109 0.0 0.0 0.00 2.41 2.41 96 1016.4
20260510035946 19 107 0.0 0.0 0.00 2.41 2.41 96 1016.3
20260510035443 19 113 0.0 0.0 0.00 2.41 2.41 96 1016.4
20260510034942 19 106 0.0 0.0 0.00 2.41 2.41 96 1016.5
20260510034441 19 105 0.0 0.0 0.00 2.41 2.41 96 1016.4
20260510033937 19 107 0.0 0.0 0.00 2.41 2.41 96 1016.4
20260510033433 19 106 0.0 0.0 0.00 2.41 2.41 96 1016.6
20260510032931 19 101 0.0 0.0 0.00 2.41 2.41 96 1016.5
20260510032428 19 101 0.0 0.0 0.00 2.41 2.41 96 1016.8
20260510031922 19 106 0.0 0.0 0.00 2.41 2.41 96 1016.4
20260510031418 19 99 0.0 0.0 0.00 2.41 2.41 96 1016.4
20260510030913 19 117 0.0 0.0 0.00 2.41 2.41 96 1016.3
20260510030410 19 108 0.0 0.0 0.00 2.41 2.41 96 1016.3
20260510025908 19 106 0.0 0.0 0.00 2.41 2.41 96 1016.3
20260510025405 19 106 0.0 0.0 0.00 2.41 2.41 96 1016.0
20260510024902 19 114 0.0 0.0 0.00 2.41 2.41 96 1015.7
20260510024358 19 120 0.0 0.0 0.00 2.41 2.41 96 1015.8
20260510023854 19 120 0.0 0.0 0.00 2.41 2.41 96 1015.9
20260510023351 19 114 0.0 0.0 0.00 2.41 2.41 95 1015.9
20260510022848 19 108 0.0 0.0 0.00 2.41 2.41 95 1015.8
20260510022347 19 113 0.0 0.0 0.00 2.41 2.41 95 1015.8
20260510021846 19 113 0.0 0.0 0.00 2.41 2.41 95 1015.6
20260510021344 19 106 0.0 0.0 0.00 2.41 2.41 95 1015.7
20260510020841 20 113 0.0 0.0 0.00 2.41 2.41 95 1016.0
20260510020340 20 113 0.0 0.0 0.00 2.41 2.41 95 1016.0
20260510015836 20 114 0.0 0.0 0.00 2.41 2.41 95 1016.2
20260510015333 20 110 0.0 0.0 0.00 2.41 2.41 95 1016.0
20260510014828 20 115 0.0 0.0 0.00 2.41 2.41 95 1015.8
20260510014326 20 106 0.0 0.0 0.00 2.41 2.41 95 1016.0
20260510013821 20 119 0.0 0.0 0.00 2.41 2.41 95 1016.1
20260510013317 20 113 0.0 0.0 0.00 2.41 2.41 95 1015.7
20260510012813 20 110 0.0 0.0 0.00 2.41 2.41 95 1015.9
20260510012312 20 127 0.0 0.0 0.13 2.41 2.41 95 1015.7
20260510011807 20 106 0.0 0.0 0.13 2.41 2.41 95 1015.7
20260510011303 20 110 0.0 0.0 0.30 2.41 2.41 95 1015.8
20260510010759 20 114 0.0 0.0 0.30 2.39 2.39 95 1015.8
20260510010256 20 116 0.0 0.0 0.13 2.36 2.36 95 1016.0
20260510005753 20 110 0.0 0.0 0.00 2.34 2.34 95 1016.0
20260510005249 20 113 0.0 0.0 0.00 2.34 2.34 95 1016.0
20260510004748 20 103 0.0 0.0 0.00 2.34 2.34 95 1015.9
20260510004245 20 123 0.0 0.0 0.00 2.34 2.34 95 1015.7
20260510003742 20 110 0.0 0.0 0.00 2.34 2.34 95 1015.9
20260510003239 20 116 0.0 0.0 0.00 2.34 2.34 95 1015.7
20260510002737 20 123 0.0 0.0 0.00 2.34 2.34 95 1015.5
20260510002235 20 115 0.0 0.0 0.00 2.34 2.34 95 1015.6
20260510001731 20 132 0.0 0.0 0.00 2.34 2.34 95 1015.6
20260510001230 20 112 0.0 0.0 0.18 2.34 2.34 95 1015.4
20260510000725 20 119 0.0 0.0 0.18 2.34 2.34 95 1015.1
20260510000223 20 115 0.0 0.0 0.00 2.31 2.31 95 1015.1
20260509235720 20 121 0.0 0.0 0.00 2.31 2.31 95 1014.8
20260509235216 20 116 0.0 0.0 0.00 2.31 2.31 95 1015.2
20260509234712 20 116 0.0 0.0 0.00 2.31 2.31 95 1015.3
20260509234209 20 106 0.0 0.0 0.00 2.31 2.31 95 1015.1
20260509233708 20 116 0.0 0.0 0.00 2.31 2.31 95 1014.8
20260509233205 20 121 0.0 0.0 0.00 2.31 2.31 95 1014.9
20260509232701 20 144 0.0 0.0 0.00 2.31 2.31 94 1014.9
20260509232157 20 112 0.0 0.0 0.00 2.31 2.31 94 1014.8
20260509231654 20 105 0.0 0.0 0.00 2.31 2.31 94 1014.7
20260509231152 20 88 1.6 3.2 0.00 2.31 2.31 94 1014.1
20260509230649 20 93 3.2 3.2 0.00 2.31 2.31 94 1013.7
20260509230146 20 104 0.0 0.0 0.13 2.31 2.31 94 1013.6
20260509225641 20 121 0.0 1.6 0.13 2.31 2.31 94 1013.6
20260509225137 20 122 1.6 1.6 0.13 2.31 2.31 94 1014.1
20260509224633 20 114 0.0 1.6 0.00 2.29 2.29 94 1014.6
20260509224130 20 112 0.0 1.6 0.00 2.29 2.29 94 1014.6
20260509223627 20 111 0.0 0.0 0.00 2.29 2.29 94 1014.7
20260509223124 20 115 0.0 0.0 0.00 2.29 2.29 94 1014.9
20260509222620 20 111 0.0 0.0 0.18 2.29 2.29 94 1015.0
20260509222116 20 117 0.0 0.0 0.18 2.29 2.29 94 1014.6
20260509221612 20 96 1.6 1.6 0.00 2.26 2.26 94 1014.9
20260509221108 20 138 3.2 3.2 0.00 2.26 2.26 93 1014.5
20260509220604 20 108 0.0 0.0 0.00 2.26 2.26 93 1014.7
20260509215556 20 136 3.2 3.2 0.00 2.26 2.26 93 1014.5
20260509215054 20 102 0.0 1.6 0.00 2.26 2.26 93 1014.7
20260509214551 20 104 0.0 0.0 0.13 2.26 2.26 93 1014.8
20260509214047 20 112 0.0 0.0 0.13 2.26 2.26 93 1015.1
20260509213543 20 143 1.6 3.2 0.00 2.24 2.24 92 1015.0
20260509213040 20 105 0.0 0.0 0.00 2.24 2.24 93 1015.2
20260509212537 20 132 1.6 1.6 0.00 2.24 2.24 93 1015.3
20260509212035 20 117 1.6 1.6 0.00 2.24 2.24 93 1014.7
20260509211530 20 119 1.6 1.6 0.00 2.24 2.24 93 1015.0
20260509211027 20 98 1.6 1.6 0.00 2.24 2.24 93 1014.9
20260509210524 20 63 4.8 4.8 0.00 2.24 2.24 93 1014.6
20260509210020 20 117 1.6 3.2 0.00 2.24 2.24 93 1013.8
20260509205514 20 105 0.0 0.0 0.00 2.24 2.24 93 1014.1
20260509205010 20 103 0.0 0.0 0.00 2.24 2.24 92 1014.4
20260509204507 20 107 1.6 1.6 0.00 2.24 2.24 92 1014.4
20260509204003 20 84 0.0 1.6 0.00 2.24 2.24 92 1014.6
20260509203459 20 135 0.0 0.0 0.00 2.24 2.24 92 1014.5
20260509202957 20 135 0.0 0.0 0.00 2.24 2.24 92 1014.5
20260509202452 20 138 0.0 0.0 0.00 2.24 2.24 92 1014.6
20260509201948 20 150 1.6 1.6 0.00 2.24 2.24 93 1014.7
20260509201443 20 145 1.6 1.6 0.00 2.24 2.24 92 1014.9
20260509200940 20 148 1.6 1.6 0.00 2.24 2.24 92 1014.2
20260509200440 20 196 4.8 4.8 0.00 2.24 2.24 92 1014.2
20260509195937 20 283 4.8 4.8 0.00 2.24 2.24 92 1013.9
20260509195433 20 91 1.6 1.6 0.00 2.24 2.24 92 1013.5
20260509194926 20 252 6.4 9.7 0.00 2.24 2.24 92 1013.4
20260509194422 20 142 3.2 3.2 0.00 2.24 2.24 92 1012.8
20260509193920 21 294 6.4 9.7 0.00 2.24 2.24 92 1013.4
20260509193419 21 182 4.8 8.0 0.00 2.24 2.24 92 1013.5
20260509192915 21 59 3.2 3.2 0.00 2.24 2.24 93 1012.5
20260509192412 21 111 0.0 0.0 0.00 2.24 2.24 93 1011.2
20260509191907 21 145 3.2 3.2 0.00 2.24 2.24 92 1012.0
20260509191403 21 125 1.6 1.6 0.00 2.24 2.24 92 1012.7
20260509190859 20 108 1.6 1.6 0.00 2.24 2.24 93 1013.3